TimeCDT,TemperatureF,Dew PointF,Humidity,Sea Level PressureIn,VisibilityMPH,Wind Direction,Wind SpeedMPH,Gust SpeedMPH,PrecipitationIn,Events,Conditions,WindDirDegrees,DateUTC
12:15 AM,48.2,28.4,46,30.12,10.0,SSW,10.4,-,N/A,,Clear,200,2013-03-15 05:15:00
12:35 AM,48.2,26.6,43,30.12,10.0,SSW,11.5,-,N/A,,Clear,200,2013-03-15 05:35:00
1:15 AM,50.0,28.4,43,30.11,10.0,SSW,11.5,-,N/A,,Clear,210,2013-03-15 06:15:00
1:35 AM,51.8,30.2,44,30.10,10.0,SW,11.5,-,N/A,,Clear,220,2013-03-15 06:35:00
1:55 AM,48.2,26.6,43,30.10,10.0,SW,9.2,-,N/A,,Clear,230,2013-03-15 06:55:00
2:15 AM,46.4,26.6,46,30.09,10.0,WSW,12.7,-,N/A,,Clear,240,2013-03-15 07:15:00
2:35 AM,46.4,26.6,46,30.09,10.0,WSW,11.5,-,N/A,,Clear,240,2013-03-15 07:35:00
2:55 AM,46.4,26.6,46,30.09,10.0,WSW,9.2,-,N/A,,Clear,250,2013-03-15 07:55:00
3:15 AM,44.6,26.6,49,30.08,10.0,WSW,8.1,-,N/A,,Clear,240,2013-03-15 08:15:00
3:35 AM,42.8,26.6,53,30.08,10.0,SSW,6.9,-,N/A,,Clear,200,2013-03-15 08:35:00
3:55 AM,42.8,26.6,53,30.07,10.0,SW,8.1,-,N/A,,Clear,230,2013-03-15 08:55:00
4:15 AM,42.8,26.6,53,30.06,10.0,WSW,11.5,-,N/A,,Clear,240,2013-03-15 09:15:00
4:35 AM,42.8,26.6,53,30.04,10.0,WSW,11.5,-,N/A,,Clear,250,2013-03-15 09:35:00
4:55 AM,42.8,28.4,57,30.04,10.0,WSW,10.4,-,N/A,,Clear,250,2013-03-15 09:55:00
5:15 AM,44.6,28.4,53,30.03,10.0,WSW,11.5,-,N/A,,Clear,250,2013-03-15 10:15:00
5:35 AM,44.6,28.4,53,30.02,10.0,West,10.4,-,N/A,,Clear,260,2013-03-15 10:35:00
5:55 AM,44.6,28.4,53,30.02,10.0,West,12.7,-,N/A,,Clear,260,2013-03-15 10:55:00
6:15 AM,44.6,28.4,53,30.02,10.0,WSW,10.4,-,N/A,,Clear,250,2013-03-15 11:15:00
6:35 AM,44.6,26.6,49,30.02,10.0,WSW,12.7,-,N/A,,Clear,250,2013-03-15 11:35:00
6:55 AM,42.8,26.6,53,30.01,10.0,West,10.4,-,N/A,,Clear,260,2013-03-15 11:55:00
7:15 AM,44.6,26.6,49,30.01,10.0,West,13.8,-,N/A,,Clear,270,2013-03-15 12:15:00
7:35 AM,42.8,26.6,53,30.01,10.0,West,12.7,-,N/A,,Clear,270,2013-03-15 12:35:00
7:55 AM,42.8,26.6,53,30.00,10.0,West,11.5,-,N/A,,Clear,270,2013-03-15 12:55:00
8:15 AM,44.6,26.6,49,30.00,10.0,West,11.5,-,N/A,,Clear,270,2013-03-15 13:15:00
8:35 AM,46.4,28.4,50,30.01,10.0,West,10.4,-,N/A,,Clear,260,2013-03-15 13:35:00
8:55 AM,50.0,30.2,47,30.00,10.0,West,10.4,-,N/A,,Clear,260,2013-03-15 13:55:00
9:15 AM,53.6,33.8,47,29.99,10.0,WSW,10.4,-,N/A,,Clear,250,2013-03-15 14:15:00
9:35 AM,60.8,39.2,45,29.99,10.0,WSW,13.8,-,N/A,,Clear,240,2013-03-15 14:35:00
9:55 AM,66.2,39.2,37,29.98,10.0,WSW,15.0,-,N/A,,Clear,250,2013-03-15 14:55:00
10:15 AM,69.8,39.2,33,29.99,10.0,WSW,15.0,-,N/A,,Clear,250,2013-03-15 15:15:00
10:35 AM,69.8,37.4,31,29.98,10.0,WSW,18.4,-,N/A,,Clear,240,2013-03-15 15:35:00
10:55 AM,71.6,35.6,27,29.98,10.0,West,19.6,-,N/A,,Clear,260,2013-03-15 15:55:00
11:15 AM,71.6,35.6,27,29.98,10.0,West,18.4,-,N/A,,Clear,260,2013-03-15 16:15:00
11:35 AM,71.6,33.8,25,29.97,10.0,West,13.8,21.9,N/A,,Clear,280,2013-03-15 16:35:00
11:55 AM,73.4,33.8,23,29.97,10.0,WNW,18.4,23.0,N/A,,Clear,300,2013-03-15 16:55:00
12:15 PM,73.4,33.8,23,29.97,10.0,WNW,13.8,-,N/A,,Clear,290,2013-03-15 17:15:00
12:35 PM,75.2,33.8,22,29.95,10.0,West,10.4,-,N/A,,Clear,270,2013-03-15 17:35:00
12:55 PM,75.2,32.0,21,29.95,10.0,WNW,8.1,-,N/A,,Clear,290,2013-03-15 17:55:00
1:15 PM,77.0,32.0,19,29.94,10.0,WNW,8.1,-,N/A,,Clear,290,2013-03-15 18:15:00
1:35 PM,78.8,30.2,17,29.93,10.0,NW,5.8,-,N/A,,Clear,320,2013-03-15 18:35:00
1:55 PM,78.8,30.2,17,29.92,10.0,NW,6.9,-,N/A,,Clear,310,2013-03-15 18:55:00
2:15 PM,80.6,30.2,16,29.90,10.0,NNW,5.8,16.1,N/A,,Clear,340,2013-03-15 19:15:00
2:35 PM,80.6,30.2,16,29.89,10.0,NNW,5.8,-,N/A,,Clear,330,2013-03-15 19:35:00
2:55 PM,80.6,28.4,15,29.88,10.0,WNW,10.4,-,N/A,,Clear,290,2013-03-15 19:55:00
3:15 PM,80.6,26.6,14,29.87,10.0,West,9.2,-,N/A,,Clear,280,2013-03-15 20:15:00
3:35 PM,82.4,26.6,13,29.86,10.0,SW,8.1,-,N/A,,Clear,230,2013-03-15 20:35:00
3:55 PM,82.4,26.6,13,29.85,10.0,NNW,9.2,-,N/A,,Clear,330,2013-03-15 20:55:00
4:15 PM,82.4,24.8,12,29.84,10.0,NNE,3.5,-,N/A,,Clear,30,2013-03-15 21:15:00
4:35 PM,80.6,24.8,13,29.84,10.0,Calm,Calm,-,N/A,,Clear,0,2013-03-15 21:35:00
4:55 PM,82.4,24.8,12,29.83,10.0,SW,4.6,-,N/A,,Clear,220,2013-03-15 21:55:00
5:15 PM,82.4,24.8,12,29.83,10.0,SSE,4.6,-,N/A,,Clear,150,2013-03-15 22:15:00
5:35 PM,82.4,24.8,12,29.83,10.0,SE,3.5,-,N/A,,Clear,140,2013-03-15 22:35:00
6:15 PM,80.6,23.0,12,29.82,10.0,South,4.6,-,N/A,,Clear,180,2013-03-15 23:15:00
6:35 PM,80.6,24.8,13,29.81,10.0,South,8.1,-,N/A,,Clear,180,2013-03-15 23:35:00
6:55 PM,77.0,26.6,16,29.81,10.0,South,6.9,-,N/A,,Clear,180,2013-03-15 23:55:00
7:15 PM,75.2,33.8,22,29.81,10.0,South,8.1,-,N/A,,Clear,180,2013-03-16 00:15:00
7:35 PM,71.6,30.2,22,29.80,10.0,SSE,8.1,-,N/A,,Clear,160,2013-03-16 00:35:00
7:55 PM,69.8,26.6,20,29.80,10.0,SSE,6.9,-,N/A,,Clear,150,2013-03-16 00:55:00
8:15 PM,68.0,24.8,20,29.80,10.0,SSE,9.2,-,N/A,,Clear,150,2013-03-16 01:15:00
8:35 PM,64.4,23.0,21,29.79,10.0,SSE,9.2,-,N/A,,Clear,160,2013-03-16 01:35:00
8:55 PM,62.6,24.8,24,29.79,10.0,SSE,8.1,-,N/A,,Clear,150,2013-03-16 01:55:00
9:15 PM,62.6,23.0,22,29.79,10.0,SSE,6.9,-,N/A,,Clear,160,2013-03-16 02:15:00
9:35 PM,59.0,24.8,27,29.79,10.0,SSE,6.9,-,N/A,,Clear,160,2013-03-16 02:35:00
9:55 PM,57.2,23.0,27,29.78,10.0,South,11.5,-,N/A,,Clear,180,2013-03-16 02:55:00
10:15 PM,55.4,24.8,31,29.78,10.0,South,9.2,-,N/A,,Clear,170,2013-03-16 03:15:00
10:35 PM,57.2,24.8,29,29.78,10.0,SSE,10.4,-,N/A,,Clear,150,2013-03-16 03:35:00
10:55 PM,55.4,24.8,31,29.78,10.0,South,9.2,-,N/A,,Clear,170,2013-03-16 03:55:00
11:15 PM,53.6,24.8,33,29.78,10.0,South,5.8,-,N/A,,Clear,180,2013-03-16 04:15:00
11:35 PM,51.8,24.8,35,29.78,10.0,Calm,Calm,-,N/A,,Clear,0,2013-03-16 04:35:00
11:55 PM,53.6,26.6,35,29.77,10.0,South,4.6,-,N/A,,Clear,190,2013-03-16 04:55:00